Location: Schommer Observatory
(40.5200°N, 74.4500°W)
Time: 16:23:30
(UTC-04:00)

ISS - Visible Passes

Search period start: 23 September 2018 00:00
Search period end: 03 October 2018 00:00
Orbit: 403 x 408 km, 51.6° (Epoch: 23 September)

Date Brightness Start Highest point End Pass type
(mag) Time Alt. Az. Time Alt. Az. Time Alt. Az.
23 Sep -3.8 19:44:20 10° SW 19:47:36 66° SE 19:50:29 13° ENE visible
23 Sep -0.9 21:21:44 10° WNW 21:23:11 18° NW 21:23:11 18° NW visible
24 Sep -2.1 20:29:19 10° W 20:32:18 31° NNW 20:33:41 22° NNE visible
25 Sep -3.0 19:37:04 10° WSW 19:40:18 51° NNW 19:43:33 10° NE visible
25 Sep -0.8 21:15:23 10° NW 21:16:44 14° NNW 21:16:44 14° NNW visible
26 Sep -1.4 20:22:45 10° WNW 20:25:14 19° NNW 20:26:59 13° NNE visible
27 Sep -1.9 19:30:15 10° W 19:33:06 26° NNW 19:35:58 10° NE visible
27 Sep -0.7 21:08:58 10° NNW 21:09:48 12° NNW 21:09:48 12° NNW visible
28 Sep -1.1 20:16:22 10° NW 20:18:12 14° NNW 20:19:53 11° NNE visible
29 Sep -1.3 19:23:41 10° WNW 19:25:59 17° NNW 19:28:16 10° NNE visible
29 Sep -0.7 21:02:05 10° NNW 21:02:35 11° NNW 21:02:35 11° NNW visible
30 Sep -1.1 20:09:47 10° NNW 20:11:12 12° N 20:12:34 10° NNE visible
01 Oct -1.2 19:17:13 10° NW 19:18:54 13° N 19:20:37 10° NNE visible
01 Oct -0.8 20:54:35 10° NNW 20:55:12 12° NNW 20:55:12 12° NNW visible
02 Oct -1.3 20:02:39 10° NNW 20:04:11 13° N 20:05:09 11° NNE visible
